Tracking 17145 objects as of 24-May-2015
HD Live streaming from Space Station

SL-8 R/B

Track SL-8 R/B now!
10-day predictions
SL-8 R/B is classified as:


NORAD ID: 13950
Int'l Code: 1983-023B
Perigee: 955.8 km
Apogee: 1,009.0 km
Inclination: 83.0 °
Period: 104.6 minutes
Semi major axis: 7353 km
RCS: 4.7862 m2 (large)
Launch date: March 30, 1983
Source: Commonwealth of Independent States (former USSR) (CIS)

Note: This is a ROCKET BODY
Your satellite tracking list
Your tracking list is empty





NASA's NSSDC Master Catalog

Two Line Element Set (TLE):
1 13950U 83023B   15143.19306499  .00000088  00000-0  73947-4 0  9999
2 13950 082.9530 171.5671 0036153 221.4233 206.5388 13.76790516614985

Source of the keplerian elements: AFSPC

N2YO: 314